Temp
12 12 13 13 13 12 13 13 14 16 15 15 16 15 15 15 15 16 16 15 14 13 12 11 11 11 11 10 10 9 9 9 9 9 9 9 9 9 8 8 8 8 8 8
12 13 13 13 12 12 13 13 15 15 15 15 15 15 16 15 15 15 15 15 15 14 14 12 12 11 11 11 10 10 9 9 9 9 9 9 9 9 8 8 8 8 8 8
12 13 12 12 12 12 13 13 15 14 15 15 15 15 16 16 16 16 16 16 15 15 14 13 13 12 11 11 11 10 10 10 9 9 9 9 10 10 9 9 8 8 9 9
12 13 12 12 12 12 14 15 14 14 13 14 15 14 16 16 17 17 16 16 16 16 14 13 13 12 12 11 12 11 11 10 10 10 10 9 9 9 9 9 8 9 9 9
13 13 13 13 14 13 14 13 14 14 14 14 15 14 16 17 17 18 17 17 17 16 15 14 14 13 12 11 11 11 11 11 11 10 10 10 9 9 9 10 10 10 10 10
12 12 12 13 13 13 13 13 14 15 14 13 15 14 17 18 17 17 17 17 17 16 15 14 14 13 12 11 11 11 11 11 11 11 10 10 10 9 9 10 10 10 10 9
12 13 13 13 14 14 14 13 13 12 10 11 14 14 16 17 17 17 18 18 17 16 15 15 15 14 13 13 12 12 11 11 11 11 10 10 10 10 9 9 9 9 9 9
12 13 14 14 14 15 14 14 14 11 9 12 15 15 16 17 18 18 18 18 17 16 16 15 15 14 14 13 13 12 11 11 11 11 11 10 10 10 10 9 9 9 9 9
12 13 14 14 14 15 15 15 15 14 12 11 14 15 16 17 17 18 18 18 18 17 16 16 16 15 14 14 13 13 12 11 11 11 11 11 10 10 10 10 9 9 9 9
13 12 14 14 14 14 15 15 14 14 11 11 13 14 16 17 18 18 18 18 17 17 17 16 16 16 15 14 14 13 12 11 11 11 11 11 11 10 10 10 9 9 9 9
14 13 15 14 14 15 15 14 14 14 14 9 9 14 16 16 17 17 17 17 17 17 17 16 16 15 15 15 14 14 13 12 12 11 11 11 11 11 11 10 10 9 9 9
13 12 13 15 15 14 14 14 15 15 14 13 12 15 16 16 17 17 17 17 17 17 17 17 16 16 15 15 15 14 14 13 12 12 11 11 11 11 11 11 10 10 10 9
13 12 13 15 15 15 14 15 15 15 15 15 12 15 16 16 16 16 16 17 17 17 17 17 17 16 16 15 15 14 14 13 12 12 12 11 11 11 11 11 10 10 10 9
12 12 12 13 14 14 14 15 15 15 15 15 15 16 15 16 16 16 16 16 16 16 17 17 16 16 16 15 15 14 14 13 13 12 12 11 11 11 11 11 11 10 10 10
11 11 12 13 13 13 14 13 15 15 15 16 16 15 15 16 16 16 16 16 16 16 16 16 16 16 16 15 15 14 14 13 13 12 12 12 11 11 11 11 11 10 10 10
10 10 10 11 12 12 13 13 13 13 14 14 14 14 15 15 16 15 16 15 16 16 16 16 16 16 16 15 14 14 15 14 13 12 12 11 11 11 11 11 11 11 11 11
9 9 9 9 10 11 11 12 12 13 13 13 13 14 14 14 15 15 15 15 15 15 15 15 15 15 15 15 15 15 14 14 13 13 12 12 12 11 12 11 11 11 11 11
8 8 8 8 9 8 10 11 12 12 12 12 13 13 13 14 14 14 15 15 15 15 15 15 15 15 15 15 15 15 14 14 13 13 13 12 12 11 12 11 11 11 11 10
7 7 7 8 9 9 10 10 10 11 10 10 11 12 12 12 12 13 14 14 14 15 15 15 15 14 14 15 15 15 15 14 13 12 12 12 11 11 11 11 11 11 11 10
6 7 6 6 7 5 9 10 10 10 9 9 10 10 11 10 10 11 11 11 12 13 14 14 14 14 14 14 14 14 14 14 13 12 12 11 11 11 11 11 11 11 11 11
6 6 6 6 6 7 7 7 8 8 8 9 9 10 9 9 9 9 10 10 10 10 11 11 13 12 12 13 13 13 13 13 12 12 12 11 11 11 10 10 11 11 11 11
4 5 5 5 5 5 5 6 7 6 6 7 7 8 9 9 8 8 8 8 9 10 10 10 10 9 9 11 10 11 12 12 12 12 12 12 11 11 11 11 10 10 10 11
4 3 3 4 4 4 4 5 5 5 5 5 6 7 7 8 8 8 7 7 7 7 8 9 9 9 8 8 11 8 10 11 11 11 12 12 11 11 11 11 11 10 10 11
2 3 2 3 4 4 3 4 4 5 5 5 5 5 6 6 7 6 6 6 6 7 7 8 9 8 8 8 8 7 8 9 10 11 11 11 11 11 11 11 10 10 10 11
1 1 2 2 2 3 3 3 3 4 4 4 5 5 5 5 5 6 6 6 5 6 6 6 7 7 7 8 7 8 8 8 9 10 10 10 11 10 10 10 10 10 10 9
1 0 0 0 1 1 2 3 3 3 3 3 4 4 4 4 5 5 5 5 5 5 5 6 6 6 6 6 7 7 7 7 8 9 10 10 10 10 11 10 10 10 9 8
Height
3173 3175 3175 3180 3181 3181 3182 3182 3180 3179 3180 3176 3173 3172 3171 3170 3170 3170 3170 3170 3172 3175 3176 3176 3177 3177 3176 3177 3178 3181 3183 3184 3186 3189 3191 3195 3197 3200 3203 3205 3207 3209 3212 3215
3173 3171 3176 3178 3179 3179 3180 3180 3179 3177 3177 3174 3171 3170 3169 3168 3166 3167 3167 3167 3170 3173 3175 3175 3177 3178 3177 3177 3178 3179 3181 3183 3184 3187 3190 3191 3194 3197 3199 3202 3204 3206 3210 3213
3169 3173 3173 3174 3176 3177 3178 3179 3177 3178 3174 3172 3169 3166 3166 3165 3163 3163 3163 3165 3167 3169 3172 3174 3175 3177 3178 3177 3178 3179 3181 3182 3184 3186 3187 3189 3190 3192 3194 3196 3199 3203 3208 3211
3169 3170 3170 3172 3173 3175 3175 3177 3176 3174 3174 3172 3171 3164 3159 3159 3159 3157 3159 3161 3163 3166 3169 3172 3174 3175 3177 3178 3178 3179 3180 3182 3183 3184 3185 3187 3189 3191 3192 3192 3194 3201 3206 3210
3166 3166 3168 3169 3172 3173 3173 3173 3172 3171 3171 3170 3170 3168 3156 3155 3155 3155 3156 3158 3160 3164 3167 3170 3172 3174 3177 3177 3178 3178 3179 3180 3182 3183 3184 3185 3188 3189 3189 3191 3194 3199 3204 3207
3163 3165 3165 3167 3169 3170 3171 3170 3170 3168 3168 3168 3167 3167 3155 3155 3155 3155 3155 3156 3158 3161 3165 3168 3170 3171 3175 3176 3177 3178 3179 3179 3180 3181 3182 3183 3184 3187 3188 3191 3195 3198 3202 3205
3161 3160 3162 3164 3165 3166 3168 3170 3170 3168 3167 3166 3164 3163 3155 3154 3154 3153 3153 3153 3156 3159 3163 3165 3167 3168 3171 3174 3176 3178 3178 3179 3179 3179 3180 3181 3182 3184 3187 3190 3193 3197 3200 3204
3161 3156 3155 3158 3160 3163 3165 3167 3168 3170 3169 3164 3162 3159 3153 3152 3151 3150 3152 3153 3155 3158 3161 3163 3165 3168 3170 3172 3175 3176 3178 3178 3179 3179 3179 3180 3181 3182 3185 3189 3192 3195 3198 3201
3159 3156 3156 3157 3158 3161 3161 3161 3163 3163 3163 3162 3159 3156 3151 3150 3149 3149 3151 3153 3155 3157 3159 3162 3164 3166 3168 3170 3173 3175 3177 3178 3178 3178 3178 3179 3180 3181 3183 3186 3189 3192 3195 3198
3157 3156 3154 3154 3155 3157 3156 3158 3159 3159 3162 3162 3155 3153 3150 3148 3148 3149 3151 3154 3155 3157 3158 3160 3163 3165 3166 3169 3171 3173 3175 3176 3176 3176 3176 3177 3179 3179 3181 3183 3186 3189 3192 3195
3153 3155 3150 3152 3152 3152 3152 3150 3153 3155 3155 3154 3157 3150 3148 3148 3147 3149 3151 3153 3154 3156 3157 3159 3161 3163 3164 3165 3168 3170 3171 3173 3174 3175 3175 3175 3177 3178 3179 3181 3183 3186 3189 3192
3151 3150 3146 3145 3147 3147 3148 3148 3148 3148 3151 3150 3151 3146 3146 3146 3146 3148 3149 3150 3152 3154 3155 3156 3157 3160 3161 3162 3164 3167 3168 3169 3171 3172 3173 3173 3174 3175 3177 3179 3181 3183 3186 3188
3147 3146 3144 3141 3142 3141 3140 3142 3143 3143 3144 3144 3147 3144 3144 3145 3145 3144 3145 3147 3149 3151 3153 3154 3155 3156 3158 3160 3161 3164 3165 3166 3167 3168 3171 3170 3172 3173 3175 3177 3179 3180 3183 3186
3145 3143 3142 3141 3139 3139 3137 3136 3137 3138 3137 3137 3138 3139 3141 3143 3143 3145 3145 3145 3147 3149 3150 3151 3152 3154 3155 3157 3158 3160 3161 3162 3163 3165 3167 3168 3170 3171 3172 3174 3176 3178 3181 3183
3140 3138 3137 3137 3135 3133 3131 3132 3130 3130 3132 3131 3133 3134 3137 3138 3140 3141 3143 3143 3144 3146 3147 3149 3150 3151 3152 3154 3154 3155 3156 3158 3159 3161 3163 3165 3167 3168 3169 3171 3173 3175 3177 3180
3135 3134 3132 3130 3130 3128 3126 3127 3126 3127 3127 3128 3129 3130 3131 3133 3135 3137 3138 3139 3141 3142 3143 3145 3148 3149 3149 3150 3151 3152 3153 3155 3156 3157 3160 3161 3163 3165 3167 3168 3170 3172 3173 3176
3130 3129 3128 3126 3126 3124 3122 3122 3121 3122 3123 3123 3124 3128 3128 3129 3130 3131 3132 3134 3136 3138 3139 3141 3143 3146 3147 3147 3148 3149 3150 3151 3152 3155 3156 3157 3159 3162 3164 3166 3167 3169 3171 3173
3120 3122 3124 3121 3123 3121 3118 3116 3118 3117 3116 3116 3117 3121 3123 3123 3125 3127 3127 3129 3131 3135 3136 3138 3140 3141 3143 3144 3145 3145 3145 3147 3148 3150 3152 3154 3155 3157 3160 3163 3165 3167 3169 3171
3113 3113 3115 3114 3113 3113 3114 3114 3114 3112 3114 3113 3112 3114 3117 3118 3119 3121 3122 3123 3125 3126 3129 3132 3134 3136 3138 3139 3139 3140 3142 3143 3143 3144 3147 3149 3151 3154 3155 3158 3161 3163 3165 3167
3110 3108 3109 3108 3107 3106 3107 3108 3109 3110 3108 3110 3110 3109 3109 3114 3115 3115 3117 3118 3120 3120 3121 3124 3125 3129 3130 3131 3133 3134 3136 3138 3138 3139 3142 3145 3147 3149 3151 3152 3155 3158 3159 3161
3106 3105 3104 3103 3103 3102 3101 3101 3101 3105 3105 3104 3106 3107 3108 3109 3111 3111 3111 3113 3115 3117 3117 3118 3117 3119 3119 3122 3124 3127 3128 3131 3132 3135 3136 3138 3140 3143 3146 3148 3149 3151 3152 3153
3105 3103 3102 3101 3100 3101 3099 3099 3101 3100 3098 3098 3098 3100 3101 3102 3103 3104 3108 3112 3112 3113 3114 3113 3110 3111 3110 3115 3115 3118 3118 3121 3125 3125 3129 3132 3132 3136 3137 3139 3141 3142 3144 3146
3104 3103 3102 3103 3099 3098 3097 3097 3096 3095 3096 3096 3096 3096 3096 3097 3096 3098 3100 3101 3104 3107 3109 3107 3106 3109 3103 3114 3106 3109 3116 3116 3117 3118 3121 3123 3126 3128 3129 3130 3132 3133 3135 3137
3100 3098 3097 3097 3095 3095 3094 3094 3092 3092 3091 3090 3090 3090 3091 3091 3091 3091 3092 3093 3094 3096 3100 3099 3099 3101 3104 3108 3111 3107 3108 3111 3111 3110 3112 3114 3116 3119 3121 3122 3115 3121 3125 3128
3095 3093 3090 3088 3089 3088 3087 3087 3086 3085 3084 3084 3084 3083 3084 3083 3085 3086 3086 3087 3088 3089 3090 3090 3089 3090 3092 3093 3094 3097 3097 3100 3099 3101 3104 3105 3108 3110 3112 3111 3108 3109 3110 3117
3089 3087 3086 3081 3082 3077 3076 3078 3077 3075 3075 3075 3073 3074 3075 3075 3075 3077 3078 3079 3079 3080 3081 3082 3082 3082 3083 3082 3083 3084 3086 3095 3094 3094 3096 3096 3099 3100 3102 3102 3103 3107 3085 3091
Wind_Speed
29 28 27 19 14 14 16 13 16 6 12 19 14 14 9 13 17 13 11 11 7 3 1 4 5 5 6 8 12 13 14 16 18 18 17 16 15 14 18 19 18 18 19 15
28 32 20 17 15 14 16 16 15 13 14 23 13 14 12 14 19 20 16 14 6 4 3 3 4 5 6 9 9 10 11 13 13 14 15 16 17 18 18 23 24 23 19 17
28 8 16 18 14 13 13 15 14 17 23 17 17 17 17 16 19 23 22 17 8 7 6 4 3 6 6 6 8 9 9 10 11 13 16 17 19 18 20 23 28 25 21 20
16 19 16 11 13 11 13 9 18 21 23 14 15 15 28 18 13 17 19 16 5 5 8 9 8 7 6 7 6 7 10 9 8 7 10 14 14 12 10 11 23 27 24 21
9 9 15 16 12 8 12 15 18 20 16 13 15 10 19 16 8 8 13 13 4 9 8 11 14 9 11 5 4 4 4 8 8 7 6 9 15 16 15 12 16 21 20 17
16 17 14 17 15 10 13 18 19 17 12 8 10 4 9 5 12 8 12 15 8 12 10 14 12 10 11 9 6 4 2 3 5 6 5 6 15 19 18 16 16 18 18 16
15 17 21 20 22 17 14 15 6 4 1 7 7 10 21 12 17 15 8 4 9 14 16 14 15 13 11 7 7 7 2 1 2 4 4 4 10 21 20 20 17 19 19 15
11 7 9 22 24 19 13 13 9 4 2 5 8 8 13 17 16 7 7 7 12 15 16 14 14 9 10 9 7 9 6 1 1 2 4 4 5 14 20 20 20 18 18 16
5 4 2 6 10 16 19 20 18 18 4 4 9 16 19 10 11 9 8 11 9 16 17 16 12 10 10 7 5 5 8 5 1 1 2 4 4 8 13 19 20 21 20 19
19 21 12 5 10 15 20 18 9 9 3 3 6 10 13 12 10 8 11 7 8 8 13 17 15 10 9 6 8 8 12 8 6 2 1 4 5 6 10 16 19 21 23 23
11 23 21 19 18 13 9 15 15 10 7 7 2 8 6 10 2 8 10 5 7 7 7 13 14 14 8 8 8 6 9 15 11 5 4 3 6 7 9 12 15 19 22 24
8 11 20 22 20 22 26 21 21 17 8 7 6 25 16 13 8 9 14 13 11 7 5 4 15 14 13 8 9 7 6 13 14 10 6 5 7 9 9 9 13 17 20 23
8 10 9 17 20 24 26 24 24 24 24 18 8 20 8 9 9 6 10 11 11 11 9 7 11 16 16 12 10 10 8 10 14 15 8 8 6 8 9 11 12 15 17 19
16 14 18 17 19 18 14 22 26 26 20 22 27 28 20 15 11 8 11 10 5 5 7 9 9 11 13 15 13 13 12 12 14 16 11 8 7 7 9 12 14 15 16 17
19 19 22 22 22 21 17 21 26 28 28 27 27 21 18 15 16 13 13 13 7 8 10 11 13 11 10 8 8 15 17 16 17 17 13 8 9 9 12 12 13 15 16 16
15 12 13 18 21 22 19 19 19 20 21 19 15 18 16 14 15 17 15 13 10 11 13 15 15 14 13 12 8 11 11 16 18 18 14 12 13 12 12 12 13 13 13 12
22 18 13 15 14 13 17 20 23 23 23 23 25 23 18 16 18 19 17 16 16 15 19 19 18 16 12 3 6 6 9 14 18 19 17 15 15 13 12 12 12 11 11 11
29 28 24 19 19 6 13 19 20 16 25 24 23 21 20 20 19 22 23 22 17 16 19 20 20 19 15 17 18 12 9 16 19 21 20 18 17 16 16 16 15 14 13 13
16 23 26 21 21 20 15 9 10 15 9 12 13 15 16 20 19 22 23 24 24 26 24 23 22 28 22 21 24 18 17 20 20 22 22 20 18 19 20 19 19 19 19 18
7 6 20 12 8 8 17 30 33 28 24 12 8 10 12 15 14 15 16 16 21 26 29 29 33 28 28 28 29 26 25 24 18 19 19 21 22 21 22 23 23 23 24 24
11 5 7 13 13 5 8 11 16 16 17 26 23 22 19 16 17 13 13 14 17 16 19 22 29 31 28 29 26 26 27 24 17 18 21 23 27 28 26 23 25 26 27 28
4 4 2 3 3 4 5 5 8 6 10 13 19 24 31 34 27 26 24 21 19 22 24 25 28 27 16 24 15 22 22 23 20 21 21 24 24 31 33 33 31 31 30 31
6 7 7 8 6 14 12 9 9 9 11 13 16 17 18 20 27 37 37 44 29 26 31 35 35 27 28 30 27 6 19 24 25 22 24 26 25 28 30 34 36 35 33 35
19 22 21 18 19 17 13 13 16 17 19 19 19 19 20 23 24 21 21 23 26 26 28 33 39 36 34 31 28 22 21 24 21 24 26 25 26 31 33 37 37 36 35 36
21 24 25 25 23 24 25 21 21 22 22 24 25 25 24 22 22 28 26 24 28 26 28 32 34 35 34 29 32 39 25 30 32 29 28 28 29 27 31 36 37 35 35 28
18 18 22 28 26 30 33 32 34 32 28 28 29 29 29 30 29 27 27 27 27 28 29 30 29 29 27 28 30 28 36 33 34 34 36 36 34 33 33 34 33 40 57 35
Wind_Direction
209 222 235 239 249 266 252 269 287 308 353 334 313 279 277 281 287 312 319 320 318 111 266 228 139 122 160 172 197 206 211 211 214 223 223 225 220 221 217 221 218 212 213 214
219 230 241 245 247 264 251 264 278 308 342 335 332 277 283 278 278 290 295 296 309 259 146 229 202 146 121 170 183 196 201 205 213 216 216 219 217 220 220 218 221 219 217 217
221 225 239 242 244 244 241 262 291 309 325 331 317 294 292 293 285 279 280 292 271 236 208 179 152 137 137 125 170 178 185 193 195 208 219 218 216 220 230 230 220 220 219 220
235 224 222 216 224 233 263 250 310 316 316 303 312 301 309 308 301 270 262 271 253 205 190 190 175 167 144 120 123 179 190 194 195 194 215 220 214 218 214 228 213 213 217 219
228 220 225 232 206 260 257 307 311 310 302 291 294 299 300 312 321 274 264 261 224 184 198 178 156 151 163 190 142 121 175 196 202 196 200 207 213 202 188 175 171 188 203 212
255 253 242 220 231 262 284 300 312 299 284 275 296 288 299 1 349 308 280 280 244 192 192 178 178 187 198 206 221 177 109 189 199 207 215 211 209 210 199 190 193 195 200 207
273 257 244 241 245 248 261 288 309 311 326 233 275 289 266 291 322 316 267 271 191 193 182 185 164 172 180 194 219 218 190 64 201 202 208 217 208 212 213 217 209 205 204 209
302 308 235 225 229 239 260 252 233 232 216 273 294 266 273 303 316 252 229 200 190 196 190 175 182 183 181 206 225 245 226 200 71 195 202 210 225 212 213 216 220 218 215 219
254 272 321 304 231 232 245 246 258 250 283 286 273 274 286 287 300 172 188 188 156 189 193 182 175 180 168 200 216 200 224 217 198 5 208 210 228 216 214 214 218 222 222 219
259 270 298 345 240 236 241 249 232 236 167 256 269 275 270 327 194 192 192 171 157 171 196 196 197 187 176 211 222 222 233 239 240 229 269 235 222 222 215 214 215 220 223 219
249 254 271 274 259 265 263 227 228 229 218 173 212 264 269 342 246 215 198 190 211 212 244 221 204 205 195 223 241 236 252 241 249 229 217 222 232 226 227 224 216 214 220 221
266 255 261 276 259 266 277 276 248 226 243 228 238 269 284 305 333 264 230 232 219 207 222 217 214 213 215 224 252 266 245 244 242 253 250 228 226 228 230 224 215 216 217 221
261 247 278 278 273 268 265 266 269 257 253 236 212 265 280 309 320 241 201 206 217 224 221 235 218 209 211 226 246 252 255 235 236 246 249 235 235 230 224 222 216 214 215 219
279 272 258 257 276 294 275 263 255 253 231 243 250 269 270 275 259 224 190 175 174 223 254 238 245 216 217 228 239 247 245 228 227 236 243 239 230 226 222 220 218 214 215 219
266 262 264 264 264 270 279 253 242 234 244 242 259 244 247 263 243 229 242 252 251 246 245 250 270 252 253 237 248 232 223 218 228 224 233 228 224 234 231 225 223 220 219 221
260 275 274 262 258 259 251 242 235 231 231 243 239 233 240 233 250 234 236 238 243 238 223 221 233 250 269 294 247 216 225 234 232 232 219 216 222 234 234 228 227 225 222 223
279 279 273 282 277 277 263 250 246 253 256 253 251 254 261 250 224 221 227 237 241 234 216 203 211 225 263 245 212 212 229 236 236 238 230 216 216 222 221 218 215 212 210 211
266 269 270 265 273 249 262 244 258 246 240 247 245 244 250 244 232 235 230 227 240 248 232 229 224 220 243 261 262 268 275 231 229 232 235 225 216 214 213 216 214 210 211 216
265 256 248 234 234 250 241 237 192 211 227 234 235 222 229 235 229 225 232 225 227 231 245 250 248 232 238 244 252 253 264 263 233 231 230 225 220 220 218 219 219 222 226 232
295 283 229 243 229 212 250 241 248 253 262 246 222 171 209 228 220 218 236 241 243 239 230 241 248 249 242 237 242 248 245 256 244 231 231 228 220 223 226 224 226 231 235 240
305 294 263 252 246 239 256 239 232 231 252 247 247 247 258 267 265 247 249 256 273 262 255 250 239 239 238 233 235 238 241 242 234 242 234 230 226 223 226 231 231 234 239 243
318 333 353 320 247 214 279 241 222 221 235 245 250 248 248 257 260 269 273 278 267 269 267 263 261 254 229 225 226 237 234 241 241 239 239 242 234 233 230 229 232 236 239 246
268 320 308 295 268 295 290 272 264 255 256 269 272 273 272 264 263 253 272 273 269 261 261 266 268 273 284 248 226 303 263 250 250 250 247 246 244 245 246 243 243 241 242 248
279 284 294 290 284 283 274 264 269 274 276 276 276 279 276 258 248 235 241 250 254 254 256 256 259 257 257 261 259 239 263 274 261 256 258 258 257 253 251 246 242 245 246 246
281 286 289 282 275 263 256 258 261 256 260 263 263 263 264 266 262 249 244 258 265 264 261 260 258 260 260 271 267 253 266 280 280 270 271 273 273 268 265 263 259 247 243 246
299 296 280 284 285 279 272 261 258 259 252 249 255 252 253 258 259 257 255 256 262 262 263 263 264 269 266 269 274 269 256 267 269 272 268 271 272 276 266 261 263 262 260 273